When you browse on this site, cookies collect data to enhance your experience and personalize the content and advertising you see.
Visit our Privacy Policy to learn more. By continuing to use the site, you agree to this use of cookies and data.
  • In Lithuania
  • List of Countries
  • For 7 days
  • Water Temperature
  • Weather Map
  • Weather Widgets
  • user-avatar
    Login

    Hourly Weather Darkhan

    Today, 1 June, Monday

    Time Temperature Precipitation Wind Pressure Humidity
    00:00 +11°C° 0 mm 1 mps 677 mmHg 57%
    01:00 +11°C° 0 mm 1 mps 677 mmHg 57%
    02:00 +10°C° 0 mm 1 mps 677 mmHg 59%
    03:00 +10°C° 0 mm 1 mps 678 mmHg 61%
    04:00 +9°C° 0 mm 1 mps 678 mmHg 62%
    05:00 +10°C° 0 mm 1 mps 678 mmHg 63%
    06:00 +11°C° 0 mm 1 mps 678 mmHg 63%
    07:00 +12°C° 0 mm 1 mps 678 mmHg 62%
    08:00 +14°C° 0 mm 2 mps 678 mmHg 57%
    09:00 +15°C° 0 mm 4 mps 678 mmHg 53%
    10:00 +17°C° 0 mm 5 mps 678 mmHg 48%
    11:00 +17°C° 0 mm 5 mps 677 mmHg 44%
    12:00 +19°C° 0 mm 5 mps 676 mmHg 40%
    13:00 +20°C° 0 mm 5 mps 676 mmHg 36%
    14:00 +20°C° 0 mm 5 mps 676 mmHg 37%
    15:00 +21°C° 0 mm 6 mps 676 mmHg 37%
    16:00 +21°C° 0 mm 6 mps 676 mmHg 38%
    17:00 +20°C° 0 mm 5 mps 675 mmHg 42%
    18:00 +19°C° 0 mm 5 mps 675 mmHg 45%
    19:00 +18°C° 0 mm 4 mps 674 mmHg 49%
    20:00 +16°C° 0.6 mm 3 mps 674 mmHg 60%
    21:00 +14°C° 0.6 mm 2 mps 673 mmHg 70%
    22:00 +12°C° 0.6 mm 2 mps 672 mmHg 81%
    23:00 +10°C° 1.3 mm 3 mps 673 mmHg 82%

    Tomorrow, 2 June, Tuesday

    Time Temperature Precipitation Wind Pressure Humidity
    00:00 +7°C° 1.3 mm 5 mps 673 mmHg 84%
    01:00 +5°C° 1.3 mm 7 mps 673 mmHg 86%
    02:00 +5°C° 0.2 mm 6 mps 675 mmHg 83%
    03:00 +6°C° 0.2 mm 4 mps 677 mmHg 81%
    04:00 +7°C° 0.2 mm 3 mps 678 mmHg 78%
    05:00 +6°C° 0 mm 4 mps 679 mmHg 72%
    06:00 +7°C° 0 mm 6 mps 679 mmHg 66%
    07:00 +6°C° 0 mm 7 mps 680 mmHg 60%
    08:00 +8°C° 0 mm 7 mps 680 mmHg 56%
    09:00 +9°C° 0 mm 6 mps 680 mmHg 52%
    10:00 +10°C° 0 mm 6 mps 681 mmHg 48%
    11:00 +11°C° 0 mm 6 mps 681 mmHg 44%
    12:00 +13°C° 0 mm 6 mps 680 mmHg 40%
    13:00 +14°C° 0 mm 7 mps 680 mmHg 36%
    14:00 +14°C° 0 mm 6 mps 680 mmHg 35%
    15:00 +15°C° 0 mm 6 mps 680 mmHg 34%
    16:00 +15°C° 0 mm 6 mps 680 mmHg 33%
    17:00 +14°C° 0 mm 4 mps 680 mmHg 38%
    18:00 +13°C° 0 mm 3 mps 679 mmHg 43%
    19:00 +13°C° 0 mm 2 mps 679 mmHg 48%
    20:00 +12°C° 0 mm 2 mps 679 mmHg 49%
    21:00 +10°C° 0 mm 1 mps 679 mmHg 49%
    22:00 +9°C° 0 mm 1 mps 679 mmHg 50%
    23:00 +9°C° 0 mm 1 mps 679 mmHg 53%

    Day after tomorrow, 3 June, Wednesday

    Time Temperature Precipitation Wind Pressure Humidity
    00:00 +8°C° 0 mm 1 mps 679 mmHg 55%
    01:00 +8°C° 0 mm 1 mps 679 mmHg 58%
    02:00 +7°C° 0 mm 1 mps 679 mmHg 59%
    03:00 +7°C° 0 mm 1 mps 679 mmHg 61%
    04:00 +6°C° 0 mm 1 mps 679 mmHg 62%
    05:00 +8°C° 0 mm 1 mps 679 mmHg 58%
    06:00 +10°C° 0 mm 1 mps 679 mmHg 54%
    07:00 +11°C° 0 mm 1 mps 679 mmHg 49%
    08:00 +13°C° 0 mm 1 mps 679 mmHg 44%
    09:00 +15°C° 0 mm 1 mps 679 mmHg 40%
    10:00 +16°C° 0 mm 1 mps 679 mmHg 35%
    11:00 +18°C° 0 mm 1 mps 679 mmHg 34%
    12:00 +18°C° 0 mm 2 mps 679 mmHg 33%
    13:00 +19°C° 0 mm 2 mps 679 mmHg 32%
    14:00 +19°C° 0 mm 2 mps 679 mmHg 32%
    15:00 +20°C° 0 mm 2 mps 679 mmHg 32%
    16:00 +20°C° 0 mm 2 mps 678 mmHg 32%
    17:00 +20°C° 0 mm 1 mps 678 mmHg 37%
    18:00 +19°C° 0 mm 1 mps 678 mmHg 42%
    19:00 +18°C° 0 mm 1 mps 678 mmHg 47%
    20:00 +16°C° 0 mm 1 mps 678 mmHg 49%
    21:00 +15°C° 0 mm 1 mps 679 mmHg 51%
    22:00 +14°C° 0 mm 1 mps 679 mmHg 53%
    23:00 +13°C° 0 mm 1 mps 679 mmHg 59%

    4 June, Thursday

    Time Temperature Precipitation Wind Pressure Humidity
    00:00 +12°C° 0 mm 1 mps 679 mmHg 65%
    01:00 +12°C° 0 mm 1 mps 679 mmHg 71%
    02:00 +11°C° 0.2 mm 1 mps 679 mmHg 74%
    03:00 +10°C° 0.2 mm 0 mps 679 mmHg 77%
    04:00 +10°C° 0.2 mm 0 mps 679 mmHg 79%
    05:00 +11°C° 0.3 mm 0 mps 679 mmHg 76%
    06:00 +13°C° 0.3 mm 1 mps 680 mmHg 73%
    07:00 +14°C° 0.3 mm 1 mps 680 mmHg 69%
    08:00 +15°C° 0 mm 1 mps 680 mmHg 63%
    09:00 +17°C° 0 mm 2 mps 680 mmHg 57%
    10:00 +18°C° 0 mm 2 mps 680 mmHg 51%
    11:00 +19°C° 0 mm 2 mps 680 mmHg 48%
    12:00 +19°C° 0 mm 2 mps 680 mmHg 45%
    13:00 +20°C° 0 mm 2 mps 680 mmHg 42%
    14:00 +20°C° 0 mm 2 mps 680 mmHg 41%
    15:00 +21°C° 0 mm 2 mps 680 mmHg 40%
    16:00 +21°C° 0 mm 2 mps 680 mmHg 39%
    17:00 +20°C° 0 mm 2 mps 680 mmHg 44%
    18:00 +19°C° 0 mm 2 mps 680 mmHg 49%
    19:00 +18°C° 0 mm 2 mps 680 mmHg 54%
    20:00 +16°C° 0.5 mm 2 mps 680 mmHg 60%
    21:00 +15°C° 0.5 mm 2 mps 680 mmHg 67%
    22:00 +13°C° 0.5 mm 2 mps 680 mmHg 73%
    23:00 +13°C° 0.3 mm 2 mps 680 mmHg 76%

    5 June, Friday

    Time Temperature Precipitation Wind Pressure Humidity
    00:00 +12°C° 0.3 mm 1 mps 679 mmHg 78%
    01:00 +12°C° 0.3 mm 1 mps 679 mmHg 80%
    02:00 +11°C° 0 mm 1 mps 679 mmHg 81%
    03:00 +11°C° 0 mm 1 mps 679 mmHg 82%
    04:00 +11°C° 0 mm 1 mps 679 mmHg 82%
    05:00 +12°C° 0 mm 1 mps 679 mmHg 78%
    06:00 +13°C° 0 mm 1 mps 679 mmHg 73%
    07:00 +14°C° 0 mm 1 mps 679 mmHg 69%
    08:00 +16°C° 0 mm 1 mps 679 mmHg 62%
    09:00 +18°C° 0 mm 2 mps 678 mmHg 56%
    10:00 +20°C° 0 mm 2 mps 678 mmHg 49%
    11:00 +21°C° 0 mm 2 mps 678 mmHg 45%
    12:00 +23°C° 0 mm 2 mps 677 mmHg 40%
    13:00 +25°C° 0 mm 3 mps 676 mmHg 35%
    14:00 +25°C° 0 mm 2 mps 676 mmHg 33%
    15:00 +26°C° 0 mm 2 mps 675 mmHg 32%
    16:00 +27°C° 0 mm 2 mps 674 mmHg 30%
    17:00 +25°C° 0.1 mm 2 mps 673 mmHg 39%
    18:00 +23°C° 0.1 mm 2 mps 673 mmHg 47%
    19:00 +20°C° 0.1 mm 2 mps 672 mmHg 55%
    20:00 +19°C° 0.5 mm 2 mps 672 mmHg 62%
    21:00 +17°C° 0.5 mm 2 mps 672 mmHg 68%
    22:00 +16°C° 0.5 mm 3 mps 672 mmHg 74%
    23:00 +16°C° 0 mm 2 mps 672 mmHg 76%

    6 June, Saturday

    Time Temperature Precipitation Wind Pressure Humidity
    00:00 +15°C° 0 mm 1 mps 672 mmHg 78%
    01:00 +13°C° 0 mm 0 mps 672 mmHg 80%
    02:00 +14°C° 0 mm 1 mps 672 mmHg 82%
    03:00 +13°C° 0 mm 1 mps 673 mmHg 84%
    04:00 +13°C° 0 mm 2 mps 673 mmHg 87%
    05:00 +13°C° 0 mm 2 mps 674 mmHg 82%
    06:00 +13°C° 0 mm 3 mps 674 mmHg 78%
    07:00 +13°C° 0 mm 4 mps 675 mmHg 74%
    08:00 +14°C° 0 mm 4 mps 675 mmHg 70%
    09:00 +15°C° 0 mm 4 mps 675 mmHg 66%
    10:00 +15°C° 0 mm 4 mps 675 mmHg 62%
    11:00 +17°C° 0 mm 4 mps 676 mmHg 58%
    12:00 +19°C° 0 mm 4 mps 676 mmHg 54%
    13:00 +20°C° 0 mm 4 mps 676 mmHg 50%
    14:00 +20°C° 0 mm 3 mps 675 mmHg 50%
    15:00 +21°C° 0 mm 3 mps 675 mmHg 49%
    16:00 +21°C° 0 mm 3 mps 674 mmHg 48%
    17:00 +20°C° 0 mm 3 mps 674 mmHg 52%
    18:00 +19°C° 0 mm 2 mps 674 mmHg 56%
    19:00 +18°C° 0 mm 2 mps 674 mmHg 59%
    20:00 +17°C° 0.2 mm 2 mps 674 mmHg 66%
    21:00 +16°C° 0.2 mm 2 mps 674 mmHg 73%
    22:00 +14°C° 0.2 mm 2 mps 674 mmHg 79%
    23:00 +14°C° 0.4 mm 2 mps 675 mmHg 83%
    Show more